Retour au catalogue

STARLINK-34887

ActifCommunicationsVLEO
NORAD 65103·PAYLOAD·🇺🇸 United States

Lancé Aug 4, 2025 depuis Cape Canaveral Space Force Station

Loading…

Prochains Passages (prochaines 24 heures)

TLE

FraisSource: CelesTrak SupGP

Époque: Sep 14, 2026, 21:08 UTC

1 65103C 25167AB  26257.88104167  .00039164  00000+0  11569-2 0  2576
2 65103  53.1583 224.1587 0001385  89.5477  80.7509 15.34375681    11

Suivez STARLINK-34887 en temps réel avec AllMySat

Download on the App Store